CZ-6A DEB, 56628

Orbit data source: Space-Track

CZ-6A DEB, 56628 is space debris in SSO originally from a launch on Fri, 11 Nov 2022 UTC launched from the Taiyaun Space Center, China (TSC). Debris objects in space refer to the collection of defunct objects orbiting the Earth. Examples of debris include non-operational satellites, rocket bodies, and fragments generated from explosions, collisions, or faulty payload assembly.

Loading next visibility...
Identifier
56628, 2022-151AFC
Orbit
SSO
Country
Flag of CNCN / PRC
Related business
Manufacturer
SAST
Mission
Spacecraft
Bus & Motor
Unknown
Mass
Unknown
Launch date (UTC)
2022-11-11 (4 years ago)
Launch vehicle
Unknown
Launch site
Taiyaun Space Center, China (TSC)
Object type
Payload
Rocket body
Debris
Shape & HBR
Unknown shape, 0.1 m
Radar Cross Section
Small (<0.1 m²)

Expand to show TLE details & history
Last TLE update: 2 days ago

TLE from 2 days ago
0 CZ-6A DEB
1 56628U 22151AFC 26171.19914330  .00000313  00000-0  21531-3 0  9997
2 56628  98.8720 160.7342 0072070   3.2541 356.9081 14.05195715112876
Epoch: 2026-06-20T04:46Z
TLE epoch observation values (Epoch: 2026-06-20T04:46:45.981Z)
Latitude
-0.00003°
Longitude
-179.37458°
Altitude
826.535 km
Speed
7.466 km/s
True Right ascension
10h 42m 56s
True Declination
0° 00' 00"
Sunlit
Object was in daylight at epoch
Visualization orbit readout
Latitude
Unknown
Longitude
Unknown
Altitude
Unknown
Speed
Unknown
Apparent Right ascension
Unknown
Apparent Declination
Unknown
Sunlit
N/A
Visualization observer readout
Local Sidereal Time
21:55:05
Azimuth
Unknown
Elevation
Unknown
Doppler factor
Unknown
Orbital elements
Apogee altitude
925.304 km
Perigee altitude
820.785 km
Semi-major axis
7,251.182 km
Eccentricity
0.00721
Inclination
98.872°
RAAN
160.7342°
Arg. of periapsis
3.2541°
True anomaly
356.86315°
Mean anomaly
356.9081°
Eccentric anomaly
356.88567°
Mean motion
3.51504 °/min
Orbital period
102.42 mins
BSTAR
0.00021531
Loading maneuver chart data...
Computing Atmospheric mass density...
Loading historical data...
Loading historical data...
Loading historical data...
Loading historical data...
Loading historical data...
Loading historical data...
Loading historical data...

Documentation

Showing up to 5 results
|